Regional Weather Roundup
Issued by NWS Mobile, AL

Home | Current Version | Previous Version | Text Only | Print | Product List | Glossary On
Versions: 1 2 3 4 5 6 7 8 9 10 11 12 13 14 15 16 17 18 19 20 21 22 23 24 25 26 27 28
000
ASUS44 KMOB 191312
RWRMOB
REGIONAL WEATHER ROUNDUP
NATIONAL WEATHER SERVICE MOBILE AL
800 AM CDT SAT AUG 19 2017

NOTE: "FAIR" INDICATES FEW OR NO CLOUDS BELOW 12,000 FEET WITH NO
      SIGNIFICANT WEATHER AND/OR OBSTRUCTIONS TO VISIBILITY.

  * THESE STATIONS ARE PART OF THE UNIVERSITY OF SOUTH ALABAMA
    MESONET AND ARE NOT UNDER NWS OR FAA QUALITY CONTROL.

ALZ061>064-191400-
COASTAL ALABAMA

CITY           SKY/WX    TMP DP  RH WIND       PRES   REMARKS
MOBILE REG APT MOSUNNY   79  73  82 NW3       30.01R
BROOKLEY FIELD SUNNY     80  76  87 N5        30.01R
USA CAMPUS*      N/A     77  73  88 CALM      30.00R
DOG RIVER*     NOT AVBL


CITY           SKY/WX    TMP DP  RH WIND       PRES   REMARKS
GULF SHORES    SUNNY     79  77  94 CALM      30.00R

$$

ALZ051>060-191400-
INTERIOR SOUTHWEST AND SOUTH CENTRAL ALABAMA

CITY           SKY/WX    TMP DP  RH WIND       PRES   REMARKS
GREENVILLE     MOSUNNY   79  74  84 CALM      30.01R
EVERGREEN      MOSUNNY   78  74  87 N3        30.02R
ATMORE*        NOT AVBL
ANDALUSIA/OPP  PTSUNNY   80  75  84 CALM      30.01R
ANDALUSIA*       N/A     77  75  94 CALM      30.02R
FLORALA APT      N/A    N/A N/A N/A MISG      30.03R
FLORALA*         N/A     79  75  89 CALM      30.70S

$$

FLZ001>006-191400-
WESTERN FLORIDA PANHANDLE

CITY           SKY/WX    TMP DP  RH WIND       PRES   REMARKS
PENSACOLA      SUNNY     82  74  76 N6        29.99S
NAS PENSACOLA  SUNNY     80  74  81 N6        29.99S
MILTON         PTSUNNY   78  74  87 CALM      30.00S
WHTNG S FIELD  MOSUNNY   82  75  79 CALM      30.00S


CITY           SKY/WX    TMP DP  RH WIND       PRES   REMARKS
JAY*             N/A     79  73  83 N3        30.01R
DUKE FIELD     SUNNY     80  73  81 N5        29.99F
CRESTVIEW      PTSUNNY   79  73  82 CALM      30.01S
VALPARAISO     MOSUNNY   79  73  82 N2        29.98F
DESTIN         SUNNY     84  74  71 NW3       29.98F

$$

MSZ076-079-191400-
INTERIOR SOUTHEAST MISSISSIPPI

CITY           SKY/WX    TMP DP  RH WIND       PRES   REMARKS
LEAKESVILLE*   NOT AVBL
AGRICOLA*        N/A     79  75  89 CALM      30.00R

$$

MARINE OBSERVATIONS

STATION/POSITION TIME  TEMP    WIND        PRES    WAVE
                       AIR SEA DIR/SP/G            HT/PER
                 (UTC) (F)     (DEG/KT/KT) (MB)    (FT/S)
PASCAGOULA       1248   80     350/  4/  6 1015.5R
PETIT BOIS ISLND 1248   81     330/  5/  6 1016.3R
GRAND BAY        1145   76     350/  5     1016.0S
KATRINA CUT      1230   82     350/  9     1015.6R
CEDAR POINT      1230   80     360/  6     1015.6R
E DAUPHIN ISLAND 1200   82     350/ 12/ 12 1014.7F
MIDDLE BAY LIGHT 1230   84     360/  9     1015.2S
USCG MOBILE BAY  1248   79 86   10/  3/  4 1016.4R
STATE DOCKS      1248   82 86              1015.8R
MEAHER PARK      1230   78      30/  2     1015.2R
WEEKS BAY        1145   75                   N/A
FORT MORGAN      1248   83      20/ 11/ 12   N/A
12 S ORANGE BCH  1250   83 86   30/  8/ 10 1015.5R   1
PENSACOLA BAY    1248   79 86              1015.8S
64 S DAUPHIN ISL 1300   85 88  310/ 12/ 12 1016.1
67 S FORT MORGAN 1230   81     360/  2     1015.9R

$$

SELECTED LOCATIONS ACROSS THE REGION

CITY           SKY/WX    TMP DP  RH WIND       PRES   REMARKS
NEW ORLEANS    MOSUNNY   82  78  88 W8        30.00F
GULFPORT       SUNNY     80  78  94 NW3       29.99R
PASCAGOULA AP  SUNNY     78  73  84 CALM      30.00R
PASCAGOULA*      N/A     66  66 100 CALM        N/A
HATTIESBURG    SUNNY     79  76  90 CALM      30.00S
LAUREL         SUNNY     79  75  87 W3        30.02R
MERIDIAN       SUNNY     78  75  90 CALM      30.01R
JACKSON        SUNNY     79  76  90 S3        30.02R
MONTGOMERY     MOSUNNY   78  73  84 CALM      30.02R
TROY           SUNNY     77  75  93 CALM      30.02R
ASHFORD*         N/A     77  75  94 CALM      30.02R
DOTHAN         MOSUNNY   79  76  90 N3        30.04S
PANAMA CITY    MOSUNNY   82  76  81 N3        29.97F

$$





USA.gov is the U.S. government's official web portal to all federal, state and local government web resources and services.